Home > Weather > Jacksonville > Past weeks

Flag for USA Past Weather in Jacksonville, Florida, USA — Yesterday and Last 2 Weeks

Now
82 °F

Passing clouds.


Feels Like: 84 °F
Forecast: 69 / 89 °F
Wind: 5 mph from North

Location: Jacksonville Naval Air Station

Current Time: May 30, 2016 at 10:38:14 AM

Latest Report: May 30, 2016 at 9:53 AM


Visibility: 10 mi

Pressure: 30.00 "Hg

Humidity: 60%

Dew Point: 67 °F

Location of JacksonvilleLocation

Past Weather in Jacksonville — Graph

°F

Jacksonville Temperature Yesterday

Maximum temperature yesterday: 91 °F (at 1:53 PM)
Minimum temperature yesterday: 70 °F (at 4:53 AM)
Average temperature yesterday: 81 °F

High & Low Weather Summary for the Past Weeks

 TemperatureHumidityPressure
High91 °F (May 29, 1:53 PM)94% (May 20, 12:53 AM)30.23 "Hg (May 20, 12:53 AM)
Low67 °F (May 23, 6:53 AM)24% (May 23, 1:53 PM)29.83 "Hg (May 22, 4:53 PM)
Average79 °F63%30.03 "Hg
* Reported May 15 8:53 AM — May 30 8:53 AM, Jacksonville, Weather by CustomWeather, © 2016

Note: Actual official high and low records may vary slightly from our data, if they occured in-between our weather recording intervals... More about our weather records

Advertising

Jacksonville Weather History for the Previous 24 Hours

Scroll right to see more
 ConditionsComfort  
Time TempWeatherWind HumidityBarometerVisibility
8:53 AM
Mon, May 30
80 °FPassing clouds.No wind67%30.00 "Hg10 mi
7:53 AM75 °FPassing clouds.3 mph79%29.99 "Hg10 mi
6:53 AM74 °FOvercast.7 mph79%29.98 "Hg10 mi
5:53 AM73 °FPassing clouds.8 mph81%29.97 "Hg10 mi
4:53 AM74 °FPassing clouds.6 mph76%29.96 "Hg10 mi
3:53 AM74 °FClear.7 mph76%29.96 "Hg10 mi
2:53 AM76 °FClear.5 mph72%29.96 "Hg10 mi
1:53 AM78 °FClear.7 mph66%29.98 "Hg10 mi
12:53 AM80 °FClear.10 mph67%30.00 "Hg10 mi
11:53 PM
Sun, May 29
80 °FClear.7 mph67%30.02 "Hg10 mi
10:53 PM81 °FClear.12 mph65%30.03 "Hg10 mi
9:53 PM82 °FClear.10 mph60%30.02 "Hg10 mi
8:53 PM86 °FPassing clouds.3 mph45%29.99 "Hg10 mi
7:53 PM89 °FPassing clouds.6 mph41%29.97 "Hg10 mi
6:53 PM90 °FPassing clouds.10 mph39%29.97 "Hg10 mi
5:53 PM91 °FScattered clouds.10 mph39%29.99 "Hg10 mi
4:53 PM91 °FScattered clouds.7 mph36%29.99 "Hg10 mi
3:53 PM91 °FBroken clouds.13 mph36%30.00 "Hg10 mi
2:53 PM91 °FScattered clouds.14 mph38%30.01 "Hg10 mi
1:53 PM91 °FBroken clouds.13 mph38%30.04 "Hg10 mi
12:53 PM88 °FScattered clouds.10 mph42%30.05 "Hg10 mi
11:53 AM86 °FScattered clouds.8 mph46%30.07 "Hg10 mi
10:53 AM83 °FPassing clouds.7 mph51%30.07 "Hg10 mi
Weather by CustomWeather, © 2016

See weather overviewHow to use our weather pages